This is the latest recevied weather packets stored in our database for station/object N2XP-3. If no packets are shown the sender has not sent any weather packets the latest 10 day(s).
| Time | Temp. | Humidity | Pressure | Rain* | Wind** | Luminosity | Snow |
|---|---|---|---|---|---|---|---|
| 1778005807 | 29.44° C | 32% | 1006 hPa | 0 mm | 1.79 m/s, 215° | - | - |
| 1778005507 | 29.44° C | 33% | 1006.3 hPa | 0 mm | 3.58 m/s, 283° | - | - |
| 1778004901 | 29.44° C | 33% | 1006.3 hPa | 0 mm | 4.92 m/s, 218° | - | - |
| 1778004601 | 28.89° C | 36% | 1006.2 hPa | 0 mm | 2.68 m/s, 285° | - | - |
| 1778003997 | 28.89° C | 37% | 1006.4 hPa | 0 mm | 1.79 m/s, 359° | - | - |
| 1778003196 | 28.89° C | 36% | 1006.6 hPa | 0.25 mm | 4.02 m/s, 212° | - | - |
| 1778003196 | 28.89° C | 37% | 1006.6 hPa | 0.25 mm | 4.02 m/s, 314° | - | - |
| 1778003092 | 28.89° C | 37% | 1006.6 hPa | 0.25 mm | 4.02 m/s, 314° | - | - |
| 1778002793 | 28.89° C | 36% | 1006.6 hPa | 0.25 mm | 4.02 m/s, 212° | - | - |
| 1778002571 | 29.44° C | 37% | 1006.8 hPa | 0.25 mm | 3.13 m/s, 260° | - | - |
| 1778002493 | 29.44° C | 37% | 1006.8 hPa | 0.25 mm | 3.13 m/s, 260° | - | - |
| 1778002190 | 29.44° C | 37% | 1006.6 hPa | 0.25 mm | 2.68 m/s, 285° | - | - |
| 1778001891 | 29.44° C | 38% | 1006.6 hPa | 0.25 mm | 1.79 m/s, 271° | - | - |
| 1778001773 | 29.44° C | 38% | 1006.7 hPa | 0.25 mm | 2.24 m/s, 200° | - | - |
| 1778001591 | 29.44° C | 38% | 1006.7 hPa | 0.25 mm | 2.24 m/s, 200° | - | - |
| 1778001287 | 29.44° C | 39% | 1006.9 hPa | 0.25 mm | 2.68 m/s, 224° | - | - |
| 1778000987 | 28.89° C | 39% | 1006.9 hPa | 0.25 mm | 2.68 m/s, 271° | - | - |
| 1778000688 | 28.89° C | 39% | 1007 hPa | 0.25 mm | 2.24 m/s, 269° | - | - |
| 1778000501 | 28.89° C | 39% | 1007.1 hPa | 0.25 mm | 2.24 m/s, 203° | - | - |
| 1778000385 | 28.89° C | 39% | 1007.1 hPa | 0.25 mm | 2.24 m/s, 203° | - | - |
| 1777999786 | 28.89° C | 40% | 1007.1 hPa | 0.25 mm | 1.79 m/s, 183° | - | - |
| 1777999637 | 28.89° C | 41% | 1007.3 hPa | 0 mm | 3.13 m/s, 345° | - | - |
| 1777999481 | 28.89° C | 41% | 1007.3 hPa | 0 mm | 3.13 m/s, 345° | - | - |
| 1777999182 | 28.89° C | 41% | 1007.3 hPa | 0 mm | 2.24 m/s, 290° | - | - |
| 1777998883 | 28.33° C | 41% | 1007.3 hPa | 0 mm | 3.13 m/s, 287° | - | - |
* Rain latest hour (hover to see other rain measurements)
** Current wind speed in m/s (hover to see current wind gust speed)